Location: George Washington National Forest Helicopter Landing Site
(38.6463°N, 79.0851°W)
Time: 21:01:03
(UTC-04:00)

Tiros 1 despin weight - Pass Details

Date: 20 August 2019
Orbit: 594 x 643 km, 48.2° (Epoch: 17 October)

Event Time Altitude Azimuth Distance (km) Brightness Sun altitude
Rises 09:02:30 0° 288° (WNW) 2,912 ? 27.7°
Reaches altitude 10° 09:05:32 10° 267° (W) 2,010 ? 28.3°
Maximum altitude 09:08:26 17° 228° (SW) 1,624 ? 28.8°
Drops below altitude 10° 09:11:20 10° 189° (S) 2,015 ? 29.4°
Sets 09:14:24 0° 169° (S) 2,924 ? 30.0°
